Volver al catálogo

COSMOS 1808

ActivoMilitarPO
NORAD 17239·PAYLOAD·🇷🇺 Russia

Lanzado Dec 17, 1986 desde Plesetsk Cosmodrome

Loading…

Próximos Pases (próximas 24 horas)

TLE

ActualizadoSource: Space-Track

Época: Sep 14, 2026, 02:09 UTC

1 17239U 86100A   26257.09003860  .00000045  00000-0  33380-4 0  9995
2 17239  82.9313 106.4192 0032179 336.6511 136.0907 13.72252182989612

Sigue COSMOS 1808 en tiempo real con AllMySat

Download on the App Store